Miami, FL

10:47 PM EST on December 10, 2019 (GMT -0500)
Miami International

Weather History for KMIA - October, 2019

Change the Weather History Date:

Tuesday, October 15, 2019

  Actual Average Record
Temperature  
Mean Temperature 82 °F 80 °F  
Max Temperature 88 °F 86 °F 91 °F (1954)
Min Temperature 75 °F 74 °F 58 °F (1896)
Degree Days  
Heating Degree Days 0 0  
Month to date heating degree days 0  
Since 1 July heating degree days 0  
Cooling Degree Days 16 15  
Month to date cooling degree days 242  
Year to date cooling degree days 3854  
Growing Degree Days 32 (Base 50)    
Moisture  
Dew Point 69 °F    
Average Humidity 65    
Maximum Humidity 76    
Minimum Humidity 46    
Precipitation  
Precipitation 0.00 in 0.20 in 6.81 in (1999)
Month to date precipitation 3.79  
Year to date precipitation 54.05  
Snow  
Snow 0.00 in - - ()
Month to date snowfall  
Since 1 July snowfall  
Since 1 September snowfall  
Snow Depth -    
Sea Level Pressure  
Sea Level Pressure 30.02 in    
Wind  
Wind Speed 5 mph (ESE)    
Max Wind Speed 12 mph    
Max Gust Speed 17 mph    
Visibility 10 miles    
Events      
T = Trace of Precipitation, MM = Missing Value Source: NWS Daily Summary

Daily Weather History Graph

Daily Weather History Graph

Search for Another Location

Airport or City:

Astronomy

Oct. 15, 2019 Rise Set
Actual Time 7:19 AM EDT 6:53 PM EDT
Civil Twilight 6:56 AM EDT 7:16 PM EDT
Nautical Twilight 6:29 AM EDT 7:43 PM EDT
Astronomical Twilight 6:03 AM EDT 8:10 PM EDT
Moon 8:20 PM EDT (10/15) 8:44 AM EDT (10/15)
Length of Visible Light 12h 20m
Length of Day
11h 33m
Full, 97% of the Moon is Illuminated
Oct 15
Full
Oct 21
Last Quarter
Oct 27
New
Nov 4
First Quarter
Nov 12
Full

Hourly Weather History & Observations

Time (EDT) Temp. Heat Index Dew Point Humidity Pressure Visibility Wind Dir Wind Speed Gust Speed Precip Events Conditions
12:53 AM 80.1 °F 82.9 °F 69.1 °F 69% 30.06 in 10.0 mi East 5.8 mph - N/A   Partly Cloudy
1:53 AM 79.0 °F - 69.1 °F 72% 30.06 in 10.0 mi Calm Calm - N/A   Partly Cloudy
2:53 AM 79.0 °F - 68.0 °F 69% 30.04 in 10.0 mi Calm Calm - N/A   Partly Cloudy
3:53 AM 77.0 °F - 68.0 °F 74% 30.03 in 10.0 mi Calm Calm - N/A   Partly Cloudy
4:53 AM 75.9 °F - 68.0 °F 76% 30.03 in 10.0 mi Calm Calm - N/A   Partly Cloudy
5:53 AM 78.1 °F - 69.1 °F 74% 30.03 in 10.0 mi North 3.5 mph - N/A   Scattered Clouds
6:53 AM 77.0 °F - 69.1 °F 76% 30.04 in 10.0 mi Calm Calm - N/A   Scattered Clouds
8:53 AM 82.0 °F 85.9 °F 70.0 °F 67% 30.04 in 10.0 mi ENE 3.5 mph - N/A   Mostly Cloudy
9:53 AM 82.9 °F 85.8 °F 68.0 °F 60% 30.05 in 10.0 mi East 6.9 mph - N/A   Mostly Cloudy
10:53 AM 84.0 °F 87.8 °F 69.1 °F 61% 30.06 in 10.0 mi SE 5.8 mph - N/A   Mostly Cloudy
11:53 AM 86.0 °F 89.4 °F 68.0 °F 55% 30.05 in 10.0 mi ESE 8.1 mph - N/A   Mostly Cloudy
12:53 PM 87.1 °F 92.0 °F 70.0 °F 57% 30.03 in 10.0 mi ESE 10.4 mph - N/A   Scattered Clouds
1:53 PM 87.1 °F 91.3 °F 69.1 °F 55% 30.01 in 10.0 mi ESE 11.5 mph 16.1 mph N/A   Scattered Clouds
2:53 PM 87.1 °F 90.6 °F 68.0 °F 53% 29.98 in 10.0 mi SE 11.5 mph - N/A   Scattered Clouds
3:53 PM 86.0 °F 90.7 °F 70.0 °F 59% 29.97 in 10.0 mi SSE 9.2 mph - N/A   Scattered Clouds
4:53 PM 84.9 °F 89.4 °F 70.0 °F 61% 29.96 in 10.0 mi SE 9.2 mph 17.3 mph N/A   Scattered Clouds
5:53 PM 84.0 °F 88.4 °F 70.0 °F 63% 29.96 in 10.0 mi ESE 10.4 mph - N/A   Scattered Clouds
6:53 PM 82.0 °F 85.9 °F 70.0 °F 67% 29.97 in 10.0 mi ESE 11.5 mph - N/A   Scattered Clouds
7:53 PM 81.0 °F 84.4 °F 70.0 °F 69% 29.98 in 10.0 mi East 8.1 mph - N/A   Partly Cloudy
8:53 PM 81.0 °F 84.4 °F 70.0 °F 69% 29.99 in 10.0 mi ESE 6.9 mph - N/A   Scattered Clouds
9:53 PM 81.0 °F 84.4 °F 70.0 °F 69% 30.01 in 10.0 mi ESE 6.9 mph - N/A   Scattered Clouds
10:53 PM 80.1 °F 83.2 °F 70.0 °F 71% 30.00 in 10.0 mi ESE 6.9 mph - N/A   Scattered Clouds
11:53 PM 80.1 °F 83.6 °F 71.1 °F 74% 29.99 in 10.0 mi ESE 6.9 mph - N/A   Scattered Clouds